timestamp,wave_ht_sig,wave_ht_max,wave_period_avg,timestamp_internal,wave_ht_sig_Hm0,wave_period,wave_period_peak,wave_direction_peak_spectral,wave_spread_peak,sea_surface_temp_avg,peak_power_spectral_density
2023-09-13T00:00:00Z,2.0,3.3,6.4,2023-09-12T23:30:00Z,2.3,5.3,6.7,107,23,16.9,5.192385
2023-09-13T00:30:00Z,2.0,3.1,6.4,2023-09-13T00:00:00Z,2.1,5.1,7.1,109,27,17.0,2.936426
2023-09-13T01:00:00Z,2.0,3.2,6.5,2023-09-13T00:30:00Z,2.2,5.1,7.1,111,20,17.0,3.983629
2023-09-13T01:30:00Z,2.1,3.6,6.7,2023-09-13T01:00:00Z,2.2,5.3,6.7,104,19,16.9,4.841348
2023-09-13T02:00:00Z,2.0,3.9,6.7,2023-09-13T01:30:00Z,2.2,5.2,7.1,111,19,16.9,4.104949
2023-09-13T02:30:00Z,2.0,3.4,6.5,2023-09-13T02:00:00Z,2.2,5.2,7.1,114,24,16.9,4.084475
2023-09-13T03:00:00Z,2.0,3.5,6.7,2023-09-13T02:30:00Z,2.1,5.3,7.1,108,20,16.8,3.714311
2023-09-13T03:30:00Z,2.0,3.1,6.5,2023-09-13T03:00:00Z,2.1,5.3,7.1,102,24,16.7,3.550872
2023-09-13T04:00:00Z,2.0,3.5,6.5,2023-09-13T03:30:00Z,2.2,5.3,7.1,107,17,16.7,4.043834
2023-09-13T04:30:00Z,1.8,3.1,6.9,2023-09-13T04:00:00Z,2.0,5.4,7.1,105,26,16.7,2.965938
2023-09-13T05:00:00Z,1.7,2.8,6.7,2023-09-13T04:30:00Z,2.0,5.3,7.1,107,17,16.7,3.846614
2023-09-13T05:30:00Z,1.8,3.0,6.7,2023-09-13T05:00:00Z,1.9,5.3,7.1,107,22,16.7,2.921781
2023-09-13T06:00:00Z,1.8,2.6,6.8,2023-09-13T05:30:00Z,1.9,5.2,7.1,105,21,16.6,3.133633
2023-09-13T06:30:00Z,1.8,3.1,6.9,2023-09-13T06:00:00Z,2.0,5.3,7.1,104,14,16.7,4.55941
2023-09-13T07:00:00Z,1.8,3.0,6.7,2023-09-13T06:30:00Z,2.0,5.4,7.1,105,19,16.7,3.245253
2023-09-13T07:30:00Z,1.8,3.1,6.8,2023-09-13T07:00:00Z,2.0,5.2,7.1,105,23,16.7,2.965938
2023-09-13T08:00:00Z,1.8,3.2,6.4,2023-09-13T07:30:00Z,1.9,5.3,7.1,104,19,16.7,2.921781
2023-09-13T08:30:00Z,1.7,2.5,6.5,2023-09-13T08:00:00Z,1.9,5.2,6.7,107,20,16.7,2.656988
2023-09-13T09:00:00Z,1.6,2.8,6.6,2023-09-13T08:30:00Z,1.8,5.2,7.1,105,20,16.7,3.056264
2023-09-13T09:30:00Z,1.8,3.1,6.7,2023-09-13T09:00:00Z,1.8,5.1,6.7,105,21,16.7,2.710663
2023-09-13T10:00:00Z,1.6,2.9,6.3,2023-09-13T09:30:00Z,1.9,5.2,6.7,100,17,16.7,3.445928
2023-09-13T10:30:00Z,1.6,2.5,6.5,2023-09-13T10:00:00Z,1.8,5.0,6.7,104,18,16.7,2.356537
2023-09-13T11:00:00Z,1.6,2.6,6.4,2023-09-13T10:30:00Z,1.7,4.9,6.7,105,19,16.7,2.197221
2023-09-13T11:30:00Z,1.5,2.6,6.4,2023-09-13T11:00:00Z,1.7,5.0,6.7,105,20,16.7,2.617431
2023-09-13T12:00:00Z,1.5,2.6,6.2,2023-09-13T11:30:00Z,1.7,4.9,6.3,98,20,16.6,1.978212
2023-09-13T12:30:00Z,1.5,2.7,6.2,2023-09-13T12:00:00Z,1.6,4.8,5.9,98,24,16.6,1.422183
2023-09-13T13:00:00Z,1.4,2.4,6.2,2023-09-13T12:30:00Z,1.6,4.9,11.1,173,26,16.6,2.018174
2023-09-13T13:30:00Z,1.4,2.4,6.4,2023-09-13T13:00:00Z,1.6,4.8,11.8,190,34,16.7,1.436476
2023-09-13T14:00:00Z,1.4,2.6,6.3,2023-09-13T13:30:00Z,1.6,4.8,6.3,109,25,16.7,1.719774
2023-09-13T14:30:00Z,1.3,2.0,6.3,2023-09-13T14:00:00Z,1.6,4.8,5.6,108,26,16.6,1.472841
2023-09-13T15:00:00Z,1.3,2.2,6.3,2023-09-13T14:30:00Z,1.5,4.8,11.8,181,32,16.7,1.502594
2023-09-13T15:30:00Z,1.3,2.1,6.6,2023-09-13T15:00:00Z,1.6,5.0,11.1,180,21,16.8,2.821287
2023-09-13T16:00:00Z,1.3,2.3,7.0,2023-09-13T15:30:00Z,1.5,4.9,10.5,168,25,16.9,1.517696
2023-09-13T16:30:00Z,1.3,2.2,6.8,2023-09-13T16:00:00Z,1.5,5.0,11.8,173,25,16.9,2.252843
2023-09-13T17:00:00Z,1.4,2.0,6.9,2023-09-13T16:30:00Z,1.4,4.9,11.1,167,29,16.9,1.826119
2023-09-13T17:30:00Z,1.4,2.3,7.0,2023-09-13T17:00:00Z,1.5,5.0,10.5,178,24,17.0,1.781032
2023-09-13T18:00:00Z,1.4,2.4,6.9,2023-09-13T17:30:00Z,1.5,5.1,10.0,164,25,17.0,1.881733
2023-09-13T18:30:00Z,1.4,2.1,6.5,2023-09-13T18:00:00Z,1.6,5.2,10.5,180,22,17.0,3.08698
2023-09-13T19:00:00Z,1.3,2.0,6.8,2023-09-13T18:30:00Z,1.5,5.0,10.5,188,25,17.0,1.571756
2023-09-13T19:30:00Z,1.4,2.2,7.0,2023-09-13T19:00:00Z,1.4,4.9,10.5,173,28,16.9,1.326035
2023-09-13T20:00:00Z,1.3,2.1,7.0,2023-09-13T19:30:00Z,1.5,5.2,10.5,166,29,16.9,2.208234
2023-09-13T20:30:00Z,1.3,2.3,6.9,2023-09-13T20:00:00Z,1.4,4.9,10.0,178,29,16.8,1.798932
2023-09-13T21:00:00Z,1.4,2.4,7.2,2023-09-13T20:30:00Z,1.4,5.0,11.1,171,42,16.8,1.525303
2023-09-13T21:30:00Z,1.2,2.0,7.2,2023-09-13T21:00:00Z,1.5,5.3,6.7,114,23,16.8,1.702662
2023-09-13T22:00:00Z,1.3,2.1,7.0,2023-09-13T21:30:00Z,1.3,5.0,11.1,170,32,16.7,1.118729
2023-09-13T22:30:00Z,1.3,2.1,7.0,2023-09-13T22:00:00Z,1.5,5.2,12.5,166,33,16.7,1.660624
2023-09-13T23:00:00Z,1.3,2.1,7.1,2023-09-13T22:30:00Z,1.3,5.0,10.5,178,34,16.7,1.211905
2023-09-13T23:30:00Z,1.3,2.0,6.8,2023-09-13T23:00:00Z,1.4,5.1,10.5,180,32,16.7,2.111066
